User: anonymous   Login
Location: East Guldeford
(50.9500°N, 0.7500°E)
Time: 23:29:35
(UTC+00:00)
Language:

ALOS 2 - Orbit

View from above orbital plane
View from above orbital plane
View from above satellite
View from above satellite

Ground track
Ground track

The orbit data is extracted from the following two-line orbital elements,

1 39766U 14029A   21204.57394163 -.00000131  00000-0 -10598-4 0  9998
2 39766  97.9221 301.4172 0001668  93.3850 266.7551 14.79470459387000
Epoch (UTC): 23 July 2021 13:46:28
Eccentricity: 0.0001668
inclination: 97.9221°
perigee height: 630 km
apogee height: 632 km
right ascension of ascending node: 301.4172°
argument of perigee: 93.3850°
revolutions per day: 14.79470459
mean anomaly at epoch: 266.7551°
orbit number at epoch: 38700

The dashed part of the orbit path shows where the satellite is in the earth's shadow,  

DLR